Back to catalog

STARLINK-2424

AliveCommunicationsVLEO
NORAD 47834·PAYLOAD·🇺🇸 United States

Launched Mar 11, 2021 from Cape Canaveral Space Force Station

Loading…

Next Passes (next 24 hours)

TLE

FreshSource: CelesTrak SupGP

Epoch: Sep 14, 2026, 13:25 UTC

1 47834C 21018AZ  26257.55951389  .00006641  00000+0  21355-3 0  2577
2 47834  53.1588  86.0925 0001293  92.6478  82.4100 15.31698617    12

Track STARLINK-2424 in real time with AllMySat

Download on the App Store